Zurück zum Katalog

MAGION 2

AktivWissenschaftPO
NORAD 20281·PAYLOAD·🇨🇿 Czechia

Gestartet Sep 28, 1989 von Plesetsk Cosmodrome

Loading…

Nächste Überflüge (nächste 24 Stunden)

TLE

AktuellSource: Space-Track

Epoche: Sep 14, 2026, 14:29 UTC

1 20281U 89080B   26257.60414460  .00000494  00000-0  13416-3 0  9990
2 20281  82.6036 313.8622 1172642 107.3967 265.8596 12.63119875693362

Verfolge MAGION 2 in Echtzeit mit AllMySat

Download on the App Store